User: anonymous   Login
Location: Unspecified
(0.0000°N, 0.0000°E)
Time: 05:17:31
(UTC+00:00)
Language:

BUGSAT 1 - Orbit

View from above orbital plane
View from above orbital plane
View from above satellite
View from above satellite

Ground track
Ground track

The orbit data is extracted from the following two-line orbital elements,

1 40014U 14033E   19083.85121725  .00000081  00000-0  12957-4 0  9999
2 40014  98.0059  29.5209 0031731 347.5817  12.4630 14.95218141259670
Epoch (UTC): 24 March 2019 20:25:45
Eccentricity: 0.0031731
inclination: 98.0059°
perigee height: 559 km
apogee height: 604 km
right ascension of ascending node: 29.5209°
argument of perigee: 347.5817°
revolutions per day: 14.95218141
mean anomaly at epoch: 12.4630°
orbit number at epoch: 25967

The dashed part of the orbit path shows where the satellite is in the earth's shadow,  

DLR